Location: Bushrod
(6.3500°N, 10.7833°W)
Time: 23:34:30
(UTC+00:00)

Lacrosse 4 Rocket - Pass Details

Date: 17 September 2019
Orbit: 544 x 615 km, 68.0° (Epoch: 20 October)

Event Time Altitude Azimuth Distance (km) Brightness Sun altitude
Rises 19:28:05 0° 356° (N) 2,691 4.9 -12.3°
Reaches altitude 10° 19:30:25 10° 6° (N) 1,804 3.9 -12.9°
Maximum altitude 19:34:04 33° 71° (ENE) 932 2.0 -13.8°
Enters shadow 19:36:04 21° 120° (ESE) 1,265 2.6 -14.3°
